SCP
0 0 0 0 0 0 0 0 0 0 0 0 0 0 0 0 0 0 0 -0 0 0 0 0 0 0 0 0 0 0 0 0 0 0 0 0 0 0 0 0 0 0 0
0 0 0 0 0 0 0 0 0 0 0 0 0 0 0 0 0 0 0 0 0 0 0 -0 0 0 0 0 0 -0 0 0 0 0 0 0 0 0 0 0 0 0 0
0 0 0 0 0 0 0 -0 0 0 0 0 0 0 0 0 0 0 0 0 0 -0 -0 -0 0 0 0 0 0 0 0 0 0 0 0 0 0 0 0 0 0 0 0
0 0 0 0 -0 0 0 -0 0 -0 -0 -0 0 0 0 0 0 0 0 0 0 0 -0 -0 0 0 -0 -0 0 0 0 0 0 0 0 0 0 0 0 0 0 0 0
-0 -0 -0 0 -0 0 -0 0 0 -0 -0 -0 0 0 0 0 0 0 0 0 0 -0 -0 -0 -0 0 -0 -0 0 0 0 0 0 0 0 0 0 0 0 0 0 0 0
-0 -0 -0 -0 -0 0 -0 0 0 0 -0 -0 0 0 0 0 0 0 0 0 0 0 0 0 0 0 0 0 0 0 0 0 0 0 0 0 0 0 0 0 0 0 0
-0 -0 0 0 0 0 0 0 0 0 0 0 -0 -0 0 0 0 0 0 0 0 0 0 -0 0 0 0 0 -0 -0 -0 0 0 -0 0 0 0 0 0 0 -0 -0 0
-0 -0 0 0 0 0 0 0 0 0 0 0 0 -0 0 0 0 0 0 0 0 0 0 0 0 0 0 -0 0 0 0 0 0 0 0 0 0 0 0 0 0 0 0
-0 -0 -0 0 0 0 0 0 0 0 0 0 0 0 0 0 0 0 0 0 0 0 0 0 -0 -0 -0 -0 0 0 0 0 0 0 0 0 -0 0 0 0 0 -0 -0
-0 -0 0 0 0 0 0 0 0 0 0 0 0 0 -0 0 -0 0 0 0 0 0 0 0 -0 -0 0 0 -0 -0 -0 -0 -0 -0 -0 0 0 -0 -0 -0 -0 -0 0
-0 -0 -0 0 0 0 0 0 0 0 0 0 0 0 0 0 0 0 0 0 0 0 0 0 -0 0 0 0 0 0 -0 -0 0 0 -0 -0 -0 -0 -0 -0 -0 -0 0
-0 -0 -0 -0 0 0 0 0 0 0 0 0 0 0 0 0 0 0 -0 0 0 0 -0 0 -0 0 0 0 0 -0 -0 -0 -0 -0 -0 0 0 0 0 0 0 0 0
-0 -0 -0 -0 -0 0 0 0 0 0 0 0 0 0 0 0 0 -0 0 0 -0 0 0 -0 -0 0 -0 0 -0 -0 -0 -0 0 0 0 0 0 -0 -0 0 0 0 0
-0 -0 -0 -0 -0 0 0 0 0 0 0 0 0 0 0 0 -0 -0 -0 0 -0 -0 -0 -0 -0 0 0 0 -0 -0 -0 0 0 0 0 -0 -0 0 0 0 0 0 0
-0 -0 -0 -0 -0 0 0 0 0 0 0 0 0 0 0 0 0 0 0 0 0 -0 -0 -0 -0 -0 -0 -0 0 -0 0 0 0 0 0 -0 -0 0 0 0 0 0 0
-0 -0 -0 -0 -0 -0 -0 -0 -0 0 -0 -0 -0 -0 -0 -0 -0 -0 -0 -0 0 -0 -0 0 0 0 0 0 0 0 0 0 0 0 -0 0 0 0 0 0 0 0 0
-0 -0 -0 -0 -0 -0 -0 -0 0 -0 0 -0 -0 -0 0 0 -0 -0 0 0 -0 0 0 0 0 0 0 0 0 0 0 0 0 -0 0 0 0 0 0 0 0 0 0
-0 -0 -0 0 0 0 -0 -0 -0 0 -0 0 0 0 0 0 -0 -0 -0 -0 -0 0 0 0 0 0 0 0 0 0 0 -0 -0 0 0 0 0 0 0 0 0 0 0
-0 0 0 0 0 0 0 -0 -0 -0 0 0 -0 0 -0 -0 -0 -0 -0 -0 -0 -0 0 0 0 0 -0 -0 0 0 -0 0 0 0 0 0 0 0 0 0 0 0 0
0 0 0 0 0 0 0 0 0 -0 -0 -0 0 0 -0 0 -0 -0 -0 -0 -0 -0 -0 -0 0 0 -0 0 0 0 0 0 0 0 0 0 0 0 0 0 0 0 0
0 0 0 0 0 0 0 0 0 0 0 0 0 0 0 -0 -0 -0 -0 -0 0 0 0 0 0 0 0 0 0 0 0 0 0 0 0 0 0 0 0 0 0 0 0
0 0 0 0 0 0 0 0 0 0 0 0 0 0 0 0 0 0 0 0 0 0 -0 0 0 0 0 0 0 0 0 0 0 0 0 0 0 0 0 0 0 0 0
0 0 0 0 0 0 0 0 0 0 0 0 0 0 0 0 0 0 0 0 0 0 0 0 0 0 0 0 0 0 0 0 0 0 0 0 0 0 0 0 0 0 0
0 0 0 0 0 0 0 0 0 0 0 0 0 0 0 0 0 0 0 0 0 0 0 0 0 0 0 0 0 0 0 0 0 0 0 0 0 0 0 0 0 0 0
0 0 0 0 0 0 0 0 0 0 0 0 0 0 0 0 0 0 0 0 0 0 0 0 0 0 0 0 0 0 0 0 0 0 0 0 0 0 0 0 0 0 0
0 0 0 0 0 0 0 0 0 0 0 0 0 0 0 0 0 0 0 0 0 0 0 0 0 0 0 0 0 0 0 0 0 0 0 0 0 0 0 0 0 0 0
Wind_Speed_500mb
19 16 11 7 4 4 2 5 6 14 20 18 14 14 15 14 17 17 17 17 18 17 15 12 15 19 21 21 20 8 11 27 36 33 37 73 98 98 92 81 73 62 54
18 15 11 7 4 2 5 7 8 16 19 19 18 14 15 15 14 13 13 13 14 15 17 17 16 21 27 17 12 10 28 30 48 72 84 97 93 93 88 75 62 56 53
17 14 11 8 4 5 7 6 11 18 21 21 19 16 14 14 14 13 13 14 16 17 21 23 25 27 29 17 18 26 33 32 64 95 93 94 88 82 75 65 54 48 44
17 16 12 8 6 10 9 10 14 16 20 23 23 20 16 16 16 15 17 17 20 23 24 26 24 19 18 15 20 25 33 35 70 77 83 86 90 74 63 59 51 47 44
19 17 13 10 8 13 10 12 13 16 17 20 24 22 19 18 19 20 22 18 23 21 19 20 19 21 19 13 18 23 32 59 86 86 86 89 82 70 60 51 48 54 40
21 18 16 14 11 15 14 16 15 19 20 20 25 24 21 18 21 19 19 22 23 27 25 25 24 24 17 20 21 27 29 64 82 83 83 87 76 64 51 54 54 51 38
23 20 20 18 14 15 17 17 18 18 18 20 22 23 26 33 26 23 22 24 26 27 27 33 32 24 26 28 24 24 43 54 70 79 85 79 72 55 47 44 49 35 30
26 23 23 20 16 15 16 17 17 16 16 18 23 28 24 25 24 19 26 23 24 27 26 29 28 31 30 28 33 35 40 51 59 68 77 68 56 51 41 36 47 35 30
31 27 26 23 20 18 15 16 18 18 17 15 15 21 38 30 24 19 24 23 29 36 25 36 36 48 39 30 47 45 39 40 46 48 55 51 55 42 39 39 40 30 32
36 30 28 24 22 19 15 17 18 20 18 16 17 17 35 39 32 20 20 26 36 32 37 40 45 49 46 35 45 46 47 51 58 53 51 49 42 42 31 31 32 25 22
37 33 30 27 24 21 18 19 22 21 20 18 23 25 26 29 28 27 24 33 43 47 49 48 52 40 37 34 37 42 51 55 52 49 49 47 44 41 38 31 31 20 21
40 37 33 32 27 24 21 23 23 23 22 21 23 25 26 32 35 39 38 33 45 47 52 38 43 37 33 36 34 39 44 50 42 40 41 42 39 34 34 39 38 36 36
44 41 37 34 32 28 25 25 24 25 22 21 20 22 25 29 38 41 43 52 48 42 35 35 39 40 42 39 38 40 46 36 36 36 35 33 34 37 32 32 33 32 29
48 45 40 37 37 32 28 26 25 26 26 24 24 24 25 28 34 44 43 44 46 38 38 38 35 36 38 36 39 40 32 36 36 36 34 34 36 33 33 32 32 31 27
50 48 44 39 41 37 33 30 28 28 26 26 25 26 29 30 32 39 42 39 38 38 42 36 33 32 33 37 38 37 29 33 30 27 29 33 34 34 30 32 27 23 14
55 52 49 45 41 39 39 35 40 34 41 39 35 28 27 27 32 36 42 45 48 44 36 29 29 31 33 34 34 33 31 34 30 29 29 29 30 29 28 28 27 25 24
61 55 51 49 45 45 43 40 38 45 38 41 39 38 35 35 33 35 36 36 38 40 32 29 30 32 35 36 38 39 38 35 34 33 32 32 32 30 36 28 29 28 27
63 60 53 55 48 47 46 44 40 39 42 44 48 46 43 36 35 36 37 38 41 43 34 31 33 34 36 38 38 39 38 36 36 36 36 35 35 33 32 31 31 31 30
65 61 57 50 49 48 45 44 43 41 41 40 39 53 51 48 45 45 44 41 38 39 42 38 37 38 39 40 40 40 40 41 40 40 40 38 37 36 36 33 34 37 40
68 66 65 53 52 52 50 47 46 45 43 44 45 42 56 62 64 65 64 62 48 46 43 45 44 42 41 41 42 42 44 47 45 40 42 42 41 40 41 40 40 42 53
68 69 71 58 55 54 55 54 52 50 48 47 46 46 52 64 60 57 56 63 59 54 50 49 48 48 47 47 47 48 46 45 48 53 49 50 51 50 48 44 44 57 57
67 65 75 68 56 56 57 56 56 55 53 51 49 47 57 59 51 53 55 55 56 56 53 51 51 52 52 52 51 51 53 55 56 53 53 52 52 52 50 50 52 62 62
64 66 62 68 63 59 58 56 57 58 57 55 52 51 59 58 56 52 52 50 50 50 51 54 54 52 51 53 56 56 58 58 55 56 55 53 54 53 54 55 57 58 65
60 64 62 66 67 62 60 60 57 57 55 55 55 56 55 52 56 59 56 52 50 50 49 49 52 55 54 53 54 55 55 53 53 53 58 55 55 59 55 56 61 62 62
56 58 59 56 61 68 60 60 59 56 56 58 57 57 56 56 51 53 55 57 55 53 52 52 53 53 57 60 58 59 58 63 59 53 50 53 51 56 58 60 61 64 68
56 54 55 54 53 54 56 51 54 53 58 58 59 59 59 60 61 57 55 56 57 57 57 58 61 60 56 54 57 61 63 62 59 64 66 58 58 58 61 65 68 75 61
Wind_Direction_500mb
176 181 185 204 215 298 191 147 168 157 166 167 159 152 161 157 170 166 164 157 162 163 160 172 165 158 158 162 157 178 197 180 163 150 158 169 147 148 148 149 150 157 154
176 178 183 194 206 275 144 152 153 150 159 168 163 162 162 169 171 159 150 157 162 164 171 159 169 170 164 168 175 147 139 142 145 134 132 144 149 153 150 154 159 155 158
174 176 180 190 203 134 139 121 137 147 154 166 164 167 167 175 171 164 172 169 167 171 164 151 155 153 156 162 148 142 152 133 145 135 140 149 151 154 155 153 146 151 142
172 173 180 188 154 143 118 118 129 138 148 162 174 170 179 192 186 183 165 163 162 157 158 158 150 152 147 136 145 143 164 154 153 147 145 148 153 152 148 149 148 143 141
171 170 175 178 138 148 132 117 127 133 142 159 169 173 176 175 165 162 153 155 152 150 162 159 160 168 159 141 144 150 150 158 151 153 149 152 154 153 149 154 145 144 149
171 170 168 161 151 147 139 130 129 135 140 153 154 163 164 157 143 140 157 157 147 149 155 169 159 150 146 148 141 148 165 165 163 160 156 158 159 164 167 154 147 149 138
172 172 165 162 160 148 150 137 152 138 146 147 155 160 151 143 132 122 118 129 139 148 150 145 146 146 147 144 142 146 173 171 169 164 162 161 161 156 148 151 155 150 158
175 174 171 166 161 152 142 146 145 146 147 164 163 169 167 157 146 134 127 135 147 141 146 137 134 134 135 145 149 146 157 162 172 164 166 162 158 166 168 162 154 167 170
181 179 176 172 166 159 152 146 149 149 140 142 168 201 203 182 155 152 133 149 141 134 131 147 132 128 115 116 138 143 140 151 156 163 171 166 172 169 168 173 173 157 159
184 181 178 175 175 167 162 152 153 146 133 123 115 107 155 172 163 164 164 149 146 146 135 142 138 134 126 121 132 135 136 139 142 145 154 169 176 179 187 181 165 164 173
184 181 178 177 176 176 166 156 150 145 139 127 118 119 145 154 164 162 163 159 154 143 139 135 142 145 133 131 145 149 147 150 150 152 157 165 169 171 172 173 176 194 205
183 183 180 179 172 179 170 160 158 156 144 138 128 123 130 138 144 140 139 137 154 149 138 134 137 141 140 139 149 152 154 152 149 149 155 163 166 170 183 191 194 199 194
183 185 184 181 177 180 175 169 164 161 160 152 144 139 139 145 143 143 142 141 136 151 152 155 144 145 148 147 146 148 151 147 154 157 163 169 179 190 192 197 203 209 216
184 185 186 184 183 182 181 179 176 172 171 165 159 155 152 150 156 154 153 155 148 157 158 154 153 154 156 161 158 157 165 172 170 172 176 186 190 188 193 200 204 206 214
185 186 188 188 189 190 187 188 186 186 180 176 171 168 164 166 174 172 169 169 168 167 165 164 166 168 170 173 176 174 171 173 171 181 182 192 192 191 191 194 190 196 194
187 189 191 190 193 195 194 197 193 194 191 183 181 173 180 184 190 180 182 180 178 184 173 177 182 184 187 189 191 193 194 196 194 192 193 192 191 190 195 202 203 201 204
189 192 194 190 195 195 198 200 201 204 201 200 200 188 182 196 192 184 183 184 189 194 194 202 201 199 197 200 202 204 207 209 204 204 203 201 201 201 209 205 207 208 208
193 196 193 194 198 197 199 202 203 205 204 205 203 201 200 198 195 196 194 195 197 198 200 208 209 210 209 211 211 212 214 215 211 211 209 209 208 209 213 212 215 215 209
192 197 196 199 201 199 200 200 202 205 207 207 206 206 204 202 203 206 208 209 210 215 216 212 214 216 216 216 218 218 218 218 218 216 215 215 217 216 220 218 220 217 215
198 199 195 199 201 201 201 201 201 203 206 207 208 210 208 206 208 211 214 215 213 219 223 224 223 221 219 220 219 220 222 221 222 222 222 224 223 222 224 223 219 221 221
197 203 204 199 201 204 204 205 205 205 206 208 210 210 213 216 213 216 220 221 221 221 222 223 225 227 226 223 222 221 221 222 222 226 225 226 227 224 226 221 220 222 232
198 200 203 201 205 208 207 209 209 210 211 212 212 213 221 222 216 222 225 228 228 228 228 229 228 226 227 228 227 226 225 225 226 228 229 228 227 228 226 223 218 217 228
202 200 203 200 207 210 210 211 214 215 216 216 216 215 224 222 220 222 227 228 230 232 231 230 232 233 231 227 226 227 228 230 230 230 231 228 228 228 230 220 217 220 229
208 207 205 201 203 209 211 212 215 218 220 221 220 219 223 225 224 224 225 230 231 232 233 234 234 233 234 232 232 231 232 232 232 232 232 231 229 229 228 223 222 222 222
208 211 211 211 208 207 212 214 217 220 224 222 225 226 224 225 228 226 226 226 230 232 232 234 238 241 241 236 232 234 235 241 242 232 230 233 229 230 231 226 223 227 218
206 211 211 211 211 211 212 218 222 226 227 231 229 230 231 230 229 229 227 227 227 230 234 239 244 244 246 248 244 238 239 246 247 245 244 240 235 230 228 222 226 225 230
Wind_Speed_850mb
19 16 11 7 4 4 2 5 6 14 20 18 14 14 15 14 17 17 17 17 18 17 15 12 15 19 21 21 20 8 11 27 36 33 37 73 98 98 92 81 73 62 54
18 15 11 7 4 2 5 7 8 16 19 19 18 14 15 15 14 13 13 13 14 15 17 17 16 21 27 17 12 10 28 30 48 72 84 97 93 93 88 75 62 56 53
17 14 11 8 4 5 7 6 11 18 21 21 19 16 14 14 14 13 13 14 16 17 21 23 25 27 29 17 18 26 33 32 64 95 93 94 88 82 75 65 54 48 44
17 16 12 8 6 10 9 10 14 16 20 23 23 20 16 16 16 15 17 17 20 23 24 26 24 19 18 15 20 25 33 35 70 77 83 86 90 74 63 59 51 47 44
19 17 13 10 8 13 10 12 13 16 17 20 24 22 19 18 19 20 22 18 23 21 19 20 19 21 19 13 18 23 32 59 86 86 86 89 82 70 60 51 48 54 40
21 18 16 14 11 15 14 16 15 19 20 20 25 24 21 18 21 19 19 22 23 27 25 25 24 24 17 20 21 27 29 64 82 83 83 87 76 64 51 54 54 51 38
23 20 20 18 14 15 17 17 18 18 18 20 22 23 26 33 26 23 22 24 26 27 27 33 32 24 26 28 24 24 43 54 70 79 85 79 72 55 47 44 49 35 30
26 23 23 20 16 15 16 17 17 16 16 18 23 28 24 25 24 19 26 23 24 27 26 29 28 31 30 28 33 35 40 51 59 68 77 68 56 51 41 36 47 35 30
31 27 26 23 20 18 15 16 18 18 17 15 15 21 38 30 24 19 24 23 29 36 25 36 36 48 39 30 47 45 39 40 46 48 55 51 55 42 39 39 40 30 32
36 30 28 24 22 19 15 17 18 20 18 16 17 17 35 39 32 20 20 26 36 32 37 40 45 49 46 35 45 46 47 51 58 53 51 49 42 42 31 31 32 25 22
37 33 30 27 24 21 18 19 22 21 20 18 23 25 26 29 28 27 24 33 43 47 49 48 52 40 37 34 37 42 51 55 52 49 49 47 44 41 38 31 31 20 21
40 37 33 32 27 24 21 23 23 23 22 21 23 25 26 32 35 39 38 33 45 47 52 38 43 37 33 36 34 39 44 50 42 40 41 42 39 34 34 39 38 36 36
44 41 37 34 32 28 25 25 24 25 22 21 20 22 25 29 38 41 43 52 48 42 35 35 39 40 42 39 38 40 46 36 36 36 35 33 34 37 32 32 33 32 29
48 45 40 37 37 32 28 26 25 26 26 24 24 24 25 28 34 44 43 44 46 38 38 38 35 36 38 36 39 40 32 36 36 36 34 34 36 33 33 32 32 31 27
50 48 44 39 41 37 33 30 28 28 26 26 25 26 29 30 32 39 42 39 38 38 42 36 33 32 33 37 38 37 29 33 30 27 29 33 34 34 30 32 27 23 14
55 52 49 45 41 39 39 35 40 34 41 39 35 28 27 27 32 36 42 45 48 44 36 29 29 31 33 34 34 33 31 34 30 29 29 29 30 29 28 28 27 25 24
61 55 51 49 45 45 43 40 38 45 38 41 39 38 35 35 33 35 36 36 38 40 32 29 30 32 35 36 38 39 38 35 34 33 32 32 32 30 36 28 29 28 27
63 60 53 55 48 47 46 44 40 39 42 44 48 46 43 36 35 36 37 38 41 43 34 31 33 34 36 38 38 39 38 36 36 36 36 35 35 33 32 31 31 31 30
65 61 57 50 49 48 45 44 43 41 41 40 39 53 51 48 45 45 44 41 38 39 42 38 37 38 39 40 40 40 40 41 40 40 40 38 37 36 36 33 34 37 40
68 66 65 53 52 52 50 47 46 45 43 44 45 42 56 62 64 65 64 62 48 46 43 45 44 42 41 41 42 42 44 47 45 40 42 42 41 40 41 40 40 42 53
68 69 71 58 55 54 55 54 52 50 48 47 46 46 52 64 60 57 56 63 59 54 50 49 48 48 47 47 47 48 46 45 48 53 49 50 51 50 48 44 44 57 57
67 65 75 68 56 56 57 56 56 55 53 51 49 47 57 59 51 53 55 55 56 56 53 51 51 52 52 52 51 51 53 55 56 53 53 52 52 52 50 50 52 62 62
64 66 62 68 63 59 58 56 57 58 57 55 52 51 59 58 56 52 52 50 50 50 51 54 54 52 51 53 56 56 58 58 55 56 55 53 54 53 54 55 57 58 65
60 64 62 66 67 62 60 60 57 57 55 55 55 56 55 52 56 59 56 52 50 50 49 49 52 55 54 53 54 55 55 53 53 53 58 55 55 59 55 56 61 62 62
56 58 59 56 61 68 60 60 59 56 56 58 57 57 56 56 51 53 55 57 55 53 52 52 53 53 57 60 58 59 58 63 59 53 50 53 51 56 58 60 61 64 68
56 54 55 54 53 54 56 51 54 53 58 58 59 59 59 60 61 57 55 56 57 57 57 58 61 60 56 54 57 61 63 62 59 64 66 58 58 58 61 65 68 75 61
Wind_Direction_850mb
176 181 185 204 215 298 191 147 168 157 166 167 159 152 161 157 170 166 164 157 162 163 160 172 165 158 158 162 157 178 197 180 163 150 158 169 147 148 148 149 150 157 154
176 178 183 194 206 275 144 152 153 150 159 168 163 162 162 169 171 159 150 157 162 164 171 159 169 170 164 168 175 147 139 142 145 134 132 144 149 153 150 154 159 155 158
174 176 180 190 203 134 139 121 137 147 154 166 164 167 167 175 171 164 172 169 167 171 164 151 155 153 156 162 148 142 152 133 145 135 140 149 151 154 155 153 146 151 142
172 173 180 188 154 143 118 118 129 138 148 162 174 170 179 192 186 183 165 163 162 157 158 158 150 152 147 136 145 143 164 154 153 147 145 148 153 152 148 149 148 143 141
171 170 175 178 138 148 132 117 127 133 142 159 169 173 176 175 165 162 153 155 152 150 162 159 160 168 159 141 144 150 150 158 151 153 149 152 154 153 149 154 145 144 149
171 170 168 161 151 147 139 130 129 135 140 153 154 163 164 157 143 140 157 157 147 149 155 169 159 150 146 148 141 148 165 165 163 160 156 158 159 164 167 154 147 149 138
172 172 165 162 160 148 150 137 152 138 146 147 155 160 151 143 132 122 118 129 139 148 150 145 146 146 147 144 142 146 173 171 169 164 162 161 161 156 148 151 155 150 158
175 174 171 166 161 152 142 146 145 146 147 164 163 169 167 157 146 134 127 135 147 141 146 137 134 134 135 145 149 146 157 162 172 164 166 162 158 166 168 162 154 167 170
181 179 176 172 166 159 152 146 149 149 140 142 168 201 203 182 155 152 133 149 141 134 131 147 132 128 115 116 138 143 140 151 156 163 171 166 172 169 168 173 173 157 159
184 181 178 175 175 167 162 152 153 146 133 123 115 107 155 172 163 164 164 149 146 146 135 142 138 134 126 121 132 135 136 139 142 145 154 169 176 179 187 181 165 164 173
184 181 178 177 176 176 166 156 150 145 139 127 118 119 145 154 164 162 163 159 154 143 139 135 142 145 133 131 145 149 147 150 150 152 157 165 169 171 172 173 176 194 205
183 183 180 179 172 179 170 160 158 156 144 138 128 123 130 138 144 140 139 137 154 149 138 134 137 141 140 139 149 152 154 152 149 149 155 163 166 170 183 191 194 199 194
183 185 184 181 177 180 175 169 164 161 160 152 144 139 139 145 143 143 142 141 136 151 152 155 144 145 148 147 146 148 151 147 154 157 163 169 179 190 192 197 203 209 216
184 185 186 184 183 182 181 179 176 172 171 165 159 155 152 150 156 154 153 155 148 157 158 154 153 154 156 161 158 157 165 172 170 172 176 186 190 188 193 200 204 206 214
185 186 188 188 189 190 187 188 186 186 180 176 171 168 164 166 174 172 169 169 168 167 165 164 166 168 170 173 176 174 171 173 171 181 182 192 192 191 191 194 190 196 194
187 189 191 190 193 195 194 197 193 194 191 183 181 173 180 184 190 180 182 180 178 184 173 177 182 184 187 189 191 193 194 196 194 192 193 192 191 190 195 202 203 201 204
189 192 194 190 195 195 198 200 201 204 201 200 200 188 182 196 192 184 183 184 189 194 194 202 201 199 197 200 202 204 207 209 204 204 203 201 201 201 209 205 207 208 208
193 196 193 194 198 197 199 202 203 205 204 205 203 201 200 198 195 196 194 195 197 198 200 208 209 210 209 211 211 212 214 215 211 211 209 209 208 209 213 212 215 215 209
192 197 196 199 201 199 200 200 202 205 207 207 206 206 204 202 203 206 208 209 210 215 216 212 214 216 216 216 218 218 218 218 218 216 215 215 217 216 220 218 220 217 215
198 199 195 199 201 201 201 201 201 203 206 207 208 210 208 206 208 211 214 215 213 219 223 224 223 221 219 220 219 220 222 221 222 222 222 224 223 222 224 223 219 221 221
197 203 204 199 201 204 204 205 205 205 206 208 210 210 213 216 213 216 220 221 221 221 222 223 225 227 226 223 222 221 221 222 222 226 225 226 227 224 226 221 220 222 232
198 200 203 201 205 208 207 209 209 210 211 212 212 213 221 222 216 222 225 228 228 228 228 229 228 226 227 228 227 226 225 225 226 228 229 228 227 228 226 223 218 217 228
202 200 203 200 207 210 210 211 214 215 216 216 216 215 224 222 220 222 227 228 230 232 231 230 232 233 231 227 226 227 228 230 230 230 231 228 228 228 230 220 217 220 229
208 207 205 201 203 209 211 212 215 218 220 221 220 219 223 225 224 224 225 230 231 232 233 234 234 233 234 232 232 231 232 232 232 232 232 231 229 229 228 223 222 222 222
208 211 211 211 208 207 212 214 217 220 224 222 225 226 224 225 228 226 226 226 230 232 232 234 238 241 241 236 232 234 235 241 242 232 230 233 229 230 231 226 223 227 218
206 211 211 211 211 211 212 218 222 226 227 231 229 230 231 230 229 229 227 227 227 230 234 239 244 244 246 248 244 238 239 246 247 245 244 240 235 230 228 222 226 225 230